UAL1246 KLAX-KSFO

Flight info

Callsign UAL1246
Flight time 0h 58m
Altitude 36000
Route SUMMR2 STOKD SERFR SERFR4
Aircraft B733/M-SDE2E3FHIRW/S

Departure

Time 2026-04-24 01:49
Airport Los Angeles International Airport (KLAX)

Arrival

Time 2026-04-24 02:47
Airport San Francisco International Airport (KSFO)
Time Latitude Longitude Altitude Speed Heading
2026-04-24 01:28 33.94228 -118.39922 114 ft 0 kts 263°
2026-04-24 01:39 33.94230 -118.39905 114 ft 1 kts 263°
2026-04-24 01:40 33.94231 -118.39893 113 ft 2 kts 257°
2026-04-24 01:40 33.94237 -118.39877 113 ft 2 kts 231°
2026-04-24 01:40 33.94248 -118.39865 113 ft 2 kts 210°
2026-04-24 01:40 33.94262 -118.39858 113 ft 2 kts 189°
2026-04-24 01:41 33.94272 -118.39857 113 ft 0 kts 175°
2026-04-24 01:41 33.94279 -118.39859 113 ft 0 kts 172°
2026-04-24 01:43 33.94274 -118.39858 113 ft 1 kts 173°
2026-04-24 01:43 33.94262 -118.39856 113 ft 2 kts 173°
2026-04-24 01:43 33.94245 -118.39854 113 ft 2 kts 174°
2026-04-24 01:44 33.94220 -118.39851 113 ft 4 kts 174°
2026-04-24 01:44 33.94179 -118.39846 112 ft 7 kts 174°
2026-04-24 01:44 33.94122 -118.39838 112 ft 9 kts 172°
2026-04-24 01:44 33.94048 -118.39833 112 ft 11 kts 180°
2026-04-24 01:45 33.93959 -118.39819 112 ft 13 kts 170°
2026-04-24 01:45 33.93907 -118.39724 110 ft 16 kts 83°
2026-04-24 01:45 33.93924 -118.39574 109 ft 19 kts 84°
2026-04-24 01:45 33.93940 -118.39402 107 ft 22 kts 82°
2026-04-24 01:46 33.93962 -118.39201 106 ft 26 kts 83°
2026-04-24 01:46 33.93986 -118.38972 103 ft 27 kts 88°
2026-04-24 01:46 33.94007 -118.38750 103 ft 26 kts 81°
2026-04-24 01:46 33.94030 -118.38523 103 ft 27 kts 84°
2026-04-24 01:47 33.94042 -118.38350 100 ft 9 kts 110°
2026-04-24 01:47 33.94036 -118.38338 100 ft 0 kts 125°
2026-04-24 01:47 33.94033 -118.38334 100 ft 1 kts 145°
2026-04-24 01:48 33.94005 -118.38329 100 ft 6 kts 173°
2026-04-24 01:48 33.93950 -118.38344 100 ft 9 kts 253°
2026-04-24 01:48 33.93948 -118.38362 100 ft 0 kts 265°
2026-04-24 01:48 33.93938 -118.38458 102 ft 42 kts 262°
2026-04-24 01:49 33.93873 -118.39105 105 ft 111 kts 264°
2026-04-24 01:49 33.93753 -118.40278 122 ft 165 kts 261°
2026-04-24 01:49 33.93570 -118.41732 503 ft 183 kts 259°
2026-04-24 01:49 33.93338 -118.43234 1083 ft 184 kts 258°
2026-04-24 01:50 33.93147 -118.44852 1266 ft 207 kts 263°
2026-04-24 01:50 33.92999 -118.46642 1577 ft 225 kts 264°
2026-04-24 01:50 33.92853 -118.48570 2089 ft 239 kts 265°
2026-04-24 01:50 33.92696 -118.50626 2608 ft 253 kts 265°
2026-04-24 01:51 33.92263 -118.52696 3268 ft 262 kts 241°
2026-04-24 01:51 33.91019 -118.54271 3960 ft 269 kts 211°
2026-04-24 01:51 33.89226 -118.54987 4648 ft 275 kts 191°
2026-04-24 01:51 33.87324 -118.55413 5011 ft 288 kts 191°
2026-04-24 01:52 33.85337 -118.55863 4752 ft 285 kts 194°
2026-04-24 01:52 33.83621 -118.56879 4811 ft 274 kts 226°
2026-04-24 01:52 33.82593 -118.58776 4968 ft 274 kts 255°
2026-04-24 01:52 33.82494 -118.61029 4968 ft 269 kts 285°
2026-04-24 01:53 33.83375 -118.62950 4959 ft 264 kts 317°
2026-04-24 01:53 33.84788 -118.64385 5014 ft 271 kts 321°
2026-04-24 01:53 33.86029 -118.66065 5704 ft 278 kts 295°
2026-04-24 01:53 33.86651 -118.68245 6536 ft 278 kts 289°
2026-04-24 01:54 33.87290 -118.70425 7384 ft 277 kts 291°
2026-04-24 01:54 33.87967 -118.72559 8246 ft 276 kts 291°
2026-04-24 01:54 33.88682 -118.74707 9083 ft 276 kts 292°
2026-04-24 01:54 33.89410 -118.76834 9901 ft 277 kts 292°
2026-04-24 01:55 33.90159 -118.78986 10399 ft 290 kts 292°
2026-04-24 01:55 33.90970 -118.81286 10654 ft 311 kts 292°
2026-04-24 01:55 33.91648 -118.83791 11381 ft 315 kts 277°
2026-04-24 01:55 33.91761 -118.86396 12197 ft 315 kts 272°
2026-04-24 01:56 33.91826 -118.89015 12981 ft 315 kts 272°
2026-04-24 01:56 33.91899 -118.91647 13754 ft 317 kts 272°
2026-04-24 01:56 33.91973 -118.94273 14459 ft 320 kts 272°
2026-04-24 01:56 33.92051 -118.96964 15148 ft 323 kts 272°
2026-04-24 01:57 33.92137 -118.99647 15871 ft 325 kts 272°
2026-04-24 01:57 33.92432 -119.02341 16553 ft 328 kts 288°
2026-04-24 01:57 33.93546 -119.04748 17232 ft 333 kts 302°
2026-04-24 01:57 33.94850 -119.07054 17821 ft 337 kts 301°
2026-04-24 01:58 33.96126 -119.09402 18459 ft 340 kts 300°
2026-04-24 01:58 33.97402 -119.11807 19098 ft 343 kts 300°
2026-04-24 01:58 33.98671 -119.14228 19754 ft 344 kts 299°
2026-04-24 01:58 33.99951 -119.16691 20338 ft 348 kts 299°
2026-04-24 01:59 34.01342 -119.19074 20822 ft 356 kts 311°
2026-04-24 01:59 34.03341 -119.20924 21357 ft 365 kts 322°
2026-04-24 01:59 34.05451 -119.22623 21877 ft 369 kts 321°
2026-04-24 01:59 34.07579 -119.24388 22362 ft 373 kts 321°
2026-04-24 02:00 34.09712 -119.26191 22883 ft 375 kts 320°
2026-04-24 02:00 34.11839 -119.27999 23356 ft 379 kts 320°
2026-04-24 02:00 34.14004 -119.29843 23887 ft 381 kts 320°
2026-04-24 02:00 34.16153 -119.31685 24399 ft 383 kts 320°
2026-04-24 02:01 34.18332 -119.33556 24928 ft 385 kts 319°
2026-04-24 02:01 34.20523 -119.35443 25392 ft 388 kts 319°
2026-04-24 02:01 34.22728 -119.37344 25859 ft 391 kts 319°
2026-04-24 02:01 34.24944 -119.39254 26391 ft 392 kts 319°
2026-04-24 02:02 34.27141 -119.41149 26968 ft 391 kts 319°
2026-04-24 02:02 34.29353 -119.43060 27577 ft 389 kts 319°
2026-04-24 02:02 34.31522 -119.44935 28188 ft 387 kts 319°
2026-04-24 02:02 34.33708 -119.46825 28787 ft 384 kts 319°
2026-04-24 02:03 34.38039 -119.50578 29825 ft 382 kts 318°
2026-04-24 02:03 34.40161 -119.52419 30336 ft 380 kts 318°
2026-04-24 02:03 34.42183 -119.54439 30825 ft 372 kts 309°
2026-04-24 02:04 34.43984 -119.56696 31300 ft 370 kts 308°
2026-04-24 02:04 34.45745 -119.58920 31768 ft 368 kts 308°
2026-04-24 02:04 34.47507 -119.61118 32242 ft 367 kts 308°
2026-04-24 02:04 34.49284 -119.63317 32696 ft 365 kts 308°
2026-04-24 02:05 34.51080 -119.65536 33093 ft 365 kts 308°
2026-04-24 02:05 34.52833 -119.67707 33459 ft 365 kts 307°
2026-04-24 02:05 34.54624 -119.69924 33715 ft 369 kts 307°
2026-04-24 02:05 34.56420 -119.72145 33742 ft 378 kts 307°
2026-04-24 02:06 34.60202 -119.76808 33782 ft 396 kts 308°
2026-04-24 02:06 34.64145 -119.81657 33895 ft 411 kts 308°
2026-04-24 02:07 34.66151 -119.84125 34113 ft 411 kts 308°
2026-04-24 02:07 34.68168 -119.86613 34418 ft 409 kts 308°
2026-04-24 02:07 34.70149 -119.89062 34759 ft 406 kts 308°
2026-04-24 02:07 34.72109 -119.91488 35116 ft 402 kts 307°
2026-04-24 02:08 34.74054 -119.93902 35403 ft 401 kts 307°
2026-04-24 02:08 34.75993 -119.96309 35646 ft 400 kts 307°
2026-04-24 02:08 34.77945 -119.98732 35900 ft 398 kts 307°
2026-04-24 02:08 34.79870 -120.01125 36052 ft 398 kts 307°
2026-04-24 02:09 34.83764 -120.05970 36061 ft 400 kts 307°
2026-04-24 02:09 34.87632 -120.10786 36045 ft 398 kts 307°
2026-04-24 02:10 34.91496 -120.15605 36032 ft 397 kts 307°
2026-04-24 02:10 34.95345 -120.20414 36065 ft 398 kts 307°
2026-04-24 02:11 34.99210 -120.25249 36055 ft 401 kts 307°
2026-04-24 02:11 35.03127 -120.30156 36038 ft 403 kts 308°
2026-04-24 02:12 35.07014 -120.35030 36023 ft 402 kts 308°
2026-04-24 02:12 35.11008 -120.39825 35974 ft 406 kts 310°
2026-04-24 02:13 35.15160 -120.44453 35987 ft 405 kts 310°
2026-04-24 02:13 35.19311 -120.49094 36020 ft 405 kts 310°
2026-04-24 02:14 35.23483 -120.53770 36030 ft 405 kts 310°
2026-04-24 02:14 35.27597 -120.58388 36046 ft 405 kts 310°
2026-04-24 02:15 35.31769 -120.63080 36064 ft 406 kts 310°
2026-04-24 02:15 35.35922 -120.67766 36028 ft 406 kts 310°
2026-04-24 02:16 35.40046 -120.72430 36032 ft 406 kts 310°
2026-04-24 02:16 35.44209 -120.77132 36037 ft 405 kts 310°
2026-04-24 02:17 35.48362 -120.81811 36030 ft 408 kts 313°
2026-04-24 02:17 35.52855 -120.86068 36014 ft 413 kts 316°
2026-04-24 02:18 35.57491 -120.90337 36014 ft 416 kts 316°
2026-04-24 02:18 35.62082 -120.94592 36021 ft 416 kts 316°
2026-04-24 02:19 35.66687 -120.98871 36022 ft 417 kts 316°
2026-04-24 02:19 35.71330 -121.03191 36034 ft 417 kts 316°
2026-04-24 02:20 35.75924 -121.07473 36039 ft 416 kts 316°
2026-04-24 02:20 35.80515 -121.11806 36035 ft 416 kts 315°
2026-04-24 02:21 35.85003 -121.16293 36018 ft 412 kts 313°
2026-04-24 02:21 35.89331 -121.20903 36016 ft 410 kts 311°
2026-04-24 02:22 35.93959 -121.24844 36017 ft 392 kts 319°
2026-04-24 02:22 35.96106 -121.26762 35921 ft 373 kts 315°
2026-04-24 02:22 35.98165 -121.28694 35811 ft 379 kts 315°
2026-04-24 02:23 36.00311 -121.30666 35724 ft 391 kts 316°
2026-04-24 02:23 36.02538 -121.32679 35627 ft 403 kts 317°
2026-04-24 02:23 36.04847 -121.34743 35523 ft 412 kts 317°
2026-04-24 02:23 36.07210 -121.36796 35407 ft 421 kts 320°
2026-04-24 02:24 36.09701 -121.38766 35295 ft 428 kts 321°
2026-04-24 02:24 36.12241 -121.40722 35133 ft 433 kts 321°
2026-04-24 02:24 36.14813 -121.42704 35015 ft 436 kts 321°
2026-04-24 02:24 36.17383 -121.44696 34900 ft 438 kts 321°
2026-04-24 02:25 36.19939 -121.46687 34791 ft 439 kts 321°
2026-04-24 02:25 36.22523 -121.48702 34679 ft 440 kts 321°
2026-04-24 02:25 36.25110 -121.50724 34570 ft 441 kts 321°
2026-04-24 02:25 36.27723 -121.52767 34461 ft 442 kts 321°
2026-04-24 02:26 36.30291 -121.54777 34353 ft 442 kts 321°
2026-04-24 02:26 36.32927 -121.56841 34239 ft 442 kts 321°
2026-04-24 02:26 36.35500 -121.58859 34108 ft 443 kts 321°
2026-04-24 02:26 36.38125 -121.60919 33974 ft 444 kts 321°
2026-04-24 02:27 36.40704 -121.62945 33840 ft 444 kts 321°
2026-04-24 02:27 36.43336 -121.65012 33707 ft 444 kts 321°
2026-04-24 02:27 36.45920 -121.67053 33555 ft 445 kts 321°
2026-04-24 02:27 36.48547 -121.69130 33421 ft 445 kts 321°
2026-04-24 02:28 36.51064 -121.71124 33389 ft 423 kts 321°
2026-04-24 02:28 36.53507 -121.73066 33351 ft 401 kts 320°
2026-04-24 02:28 36.55794 -121.74889 33034 ft 389 kts 320°
2026-04-24 02:28 36.58060 -121.76695 32414 ft 384 kts 320°
2026-04-24 02:29 36.60276 -121.78457 31754 ft 380 kts 321°
2026-04-24 02:29 36.62484 -121.80208 31125 ft 375 kts 321°
2026-04-24 02:29 36.64669 -121.81941 30490 ft 372 kts 321°
2026-04-24 02:29 36.66848 -121.83668 29898 ft 367 kts 321°
2026-04-24 02:30 36.68964 -121.85345 29276 ft 364 kts 322°
2026-04-24 02:30 36.71109 -121.87048 28578 ft 362 kts 322°
2026-04-24 02:30 36.73217 -121.88719 27926 ft 360 kts 323°
2026-04-24 02:30 36.75496 -121.89961 27242 ft 367 kts 340°
2026-04-24 02:31 36.77972 -121.90641 26617 ft 365 kts 343°
2026-04-24 02:31 36.80477 -121.91291 25999 ft 362 kts 343°
2026-04-24 02:31 36.82915 -121.91945 25408 ft 358 kts 342°
2026-04-24 02:31 36.85322 -121.92604 24818 ft 354 kts 342°
2026-04-24 02:32 36.87701 -121.93263 24231 ft 351 kts 343°
2026-04-24 02:32 36.90075 -121.93922 23632 ft 349 kts 343°
2026-04-24 02:32 36.92439 -121.94581 23072 ft 345 kts 343°
2026-04-24 02:32 36.94774 -121.95236 22503 ft 343 kts 343°
2026-04-24 02:33 36.97031 -121.96050 21937 ft 339 kts 339°
2026-04-24 02:33 36.99268 -121.96935 21374 ft 338 kts 340°
2026-04-24 02:33 37.01503 -121.97816 20823 ft 336 kts 340°
2026-04-24 02:33 37.03743 -121.98693 20265 ft 334 kts 340°
2026-04-24 02:34 37.05939 -121.99551 19719 ft 332 kts 341°
2026-04-24 02:34 37.08133 -122.00407 19191 ft 330 kts 341°
2026-04-24 02:34 37.10317 -122.01260 18643 ft 328 kts 341°
2026-04-24 02:34 37.12506 -122.02111 18038 ft 328 kts 341°
2026-04-24 02:35 37.14666 -122.02950 17545 ft 324 kts 341°
2026-04-24 02:35 37.16794 -122.03780 17058 ft 319 kts 341°
2026-04-24 02:35 37.18916 -122.04609 16568 ft 316 kts 341°
2026-04-24 02:35 37.20986 -122.05418 16088 ft 313 kts 341°
2026-04-24 02:36 37.23064 -122.06233 15594 ft 312 kts 341°
2026-04-24 02:36 37.25127 -122.07040 15084 ft 310 kts 342°
2026-04-24 02:36 37.27190 -122.07848 14598 ft 308 kts 342°
2026-04-24 02:36 37.29229 -122.08656 14133 ft 306 kts 342°
2026-04-24 02:37 37.31250 -122.09456 13649 ft 305 kts 342°
2026-04-24 02:37 37.33252 -122.10246 13196 ft 302 kts 342°
2026-04-24 02:37 37.35269 -122.11042 12763 ft 300 kts 342°
2026-04-24 02:37 37.37244 -122.11820 12325 ft 298 kts 343°
2026-04-24 02:38 37.39230 -122.12520 11899 ft 295 kts 345°
2026-04-24 02:38 37.41204 -122.13195 11470 ft 292 kts 345°
2026-04-24 02:38 37.43144 -122.13860 11035 ft 290 kts 344°
2026-04-24 02:38 37.45077 -122.14523 10629 ft 288 kts 344°
2026-04-24 02:39 37.47003 -122.15183 10202 ft 286 kts 345°
2026-04-24 02:39 37.48925 -122.15843 9772 ft 284 kts 345°
2026-04-24 02:39 37.50786 -122.16482 9615 ft 268 kts 344°
2026-04-24 02:39 37.52532 -122.17098 9375 ft 255 kts 341°
2026-04-24 02:40 37.53957 -122.18333 9164 ft 256 kts 306°
2026-04-24 02:40 37.54694 -122.20383 8907 ft 254 kts 285°
2026-04-24 02:40 37.55204 -122.22543 7749 ft 276 kts 291°
2026-04-24 02:40 37.55716 -122.24831 7134 ft 270 kts 270°
2026-04-24 02:41 37.55092 -122.26965 6665 ft 263 kts 226°
2026-04-24 02:41 37.53545 -122.28040 6246 ft 252 kts 185°
2026-04-24 02:41 37.51925 -122.27656 5805 ft 236 kts 153°
2026-04-24 02:41 37.50534 -122.26599 5098 ft 232 kts 143°
2026-04-24 02:42 37.49398 -122.25271 4690 ft 216 kts 127°
2026-04-24 02:42 37.48708 -122.23660 4121 ft 212 kts 97°
2026-04-24 02:42 37.49068 -122.21960 3463 ft 203 kts 36°
2026-04-24 02:42 37.50306 -122.21575 3064 ft 184 kts 337°
2026-04-24 02:43 37.51423 -122.22239 2661 ft 177 kts 326°
2026-04-24 02:43 37.52451 -122.23086 2278 ft 172 kts 330°
2026-04-24 02:43 37.53522 -122.23742 1888 ft 174 kts 338°
2026-04-24 02:43 37.54665 -122.24210 1685 ft 175 kts 343°
2026-04-24 02:44 37.55831 -122.24577 1628 ft 164 kts 340°
2026-04-24 02:44 37.56672 -122.25191 1704 ft 126 kts 303°
2026-04-24 02:44 37.57066 -122.26144 1434 ft 119 kts 295°
2026-04-24 02:44 37.57449 -122.27065 1144 ft 120 kts 300°
2026-04-24 02:45 37.57875 -122.27968 965 ft 117 kts 301°
2026-04-24 02:45 37.58302 -122.28861 914 ft 115 kts 296°
2026-04-24 02:45 37.58680 -122.29816 823 ft 130 kts 291°
2026-04-24 02:45 37.59035 -122.30796 793 ft 121 kts 292°
2026-04-24 02:46 37.59424 -122.31750 687 ft 122 kts 296°
2026-04-24 02:46 37.59851 -122.32680 567 ft 122 kts 303°
2026-04-24 02:46 37.60268 -122.33619 453 ft 123 kts 296°
2026-04-24 02:46 37.60660 -122.34600 321 ft 125 kts 296°
2026-04-24 02:47 37.61065 -122.35562 119 ft 120 kts 295°
2026-04-24 02:47 37.61435 -122.36459 11 ft 109 kts 295°
2026-04-24 02:47 37.61720 -122.37145 13 ft 62 kts 298°
2026-04-24 02:47 37.61880 -122.37524 21 ft 25 kts 295°
2026-04-24 02:48 37.61941 -122.37689 24 ft 22 kts 312°
2026-04-24 02:48 37.61983 -122.37889 28 ft 27 kts 250°
2026-04-24 02:48 37.61939 -122.37975 30 ft 0 kts 222°
2026-04-24 02:49 37.61938 -122.37976 30 ft 0 kts 222°
2026-04-24 02:49 37.61927 -122.37987 30 ft 4 kts 220°
2026-04-24 02:49 37.61900 -122.38052 30 ft 14 kts 268°
2026-04-24 02:49 37.61849 -122.38120 30 ft 0 kts 202°